EST,Max TemperatureF,Mean TemperatureF,Min TemperatureF,Max Dew PointF,MeanDew PointF,Min DewpointF,Max Humidity, Mean Humidity, Min Humidity, Max Sea Level PressureIn, Mean Sea Level PressureIn, Min Sea Level PressureIn, Max VisibilityMiles, Mean VisibilityMiles, Min VisibilityMiles, Max Wind SpeedMPH, Mean Wind SpeedMPH, Max Gust SpeedMPH,PrecipitationIn, CloudCover, Events, WindDirDegrees
2014-1-1,26,22,17,19,17,12,86,82,74,30.27,30.18,30.09,10,8,2,12,8,17,0.01,6,Snow,66
2014-1-2,17,12,6,14,8,-4,86,74,48,30.36,30.12,29.99,10,5,1,18,10,26,0.05,7,Snow,7
2014-1-3,17,4,-9,9,-1,-15,92,71,58,30.48,30.35,30.11,10,10,7,17,5,22,0.00,2,,175
2014-1-4,33,24,15,27,17,9,80,68,59,30.10,29.99,29.94,10,10,10,22,15,29,0.00,3,,198
2014-1-5,33,20,8,32,27,3,100,94,79,30.00,29.85,29.69,10,2,0,18,9,24,0.23,8,Rain-Snow,326
2014-1-6,5,-4,-14,0,-18,-22,78,71,64,30.31,30.21,29.92,10,4,1,26,16,33,0.00,7,,263
2014-1-7,10,-2,-14,3,-11,-22,77,70,65,30.38,30.32,30.29,10,10,7,20,13,25,0.00,4,,218
2014-1-8,17,11,5,12,6,-2,86,76,67,30.50,30.38,30.29,10,9,2,8,4,,0.00,4,Snow,212
2014-1-9,32,21,10,28,15,5,93,84,73,30.51,30.40,30.21,10,8,1,13,5,,0.00,7,Snow,110
2014-1-10,39,36,32,37,34,30,100,97,87,30.21,29.97,29.60,10,5,0,17,11,22,0.17,8,Fog-Rain,157
2014-1-11,39,36,32,37,33,28,100,97,87,29.79,29.58,29.44,10,5,0,23,12,32,0.02,8,Fog,239
2014-1-12,39,34,30,32,29,27,93,85,70,29.99,29.86,29.74,10,9,7,21,12,26,0.00,4,,205
2014-1-13,48,40,32,37,33,30,93,77,66,29.79,29.68,29.61,10,10,7,22,14,26,0.00,3,,227
2014-1-14,35,29,23,32,25,16,100,82,59,29.89,29.80,29.69,10,9,3,26,10,41,0.00,4,Rain-Snow,232
2014-1-15,26,22,17,19,14,10,80,71,63,30.08,30.02,29.89,10,10,2,18,13,30,0.00,8,Snow,266
2014-1-16,32,24,17,28,20,12,93,80,59,29.98,29.74,29.61,10,7,0,23,15,34,0.00,7,Snow,204
2014-1-17,26,19,12,19,11,5,86,77,64,30.01,29.87,29.70,10,8,2,20,10,23,0.00,8,Snow,256
2014-1-18,21,14,8,19,13,5,93,85,68,30.00,29.88,29.76,10,7,0,15,10,16,0.00,6,Snow,165
2014-1-19,32,21,10,27,17,9,100,84,69,29.91,29.78,29.60,10,7,0,29,11,34,0.00,3,Fog-Snow,235
2014-1-20,35,30,24,30,27,21,93,83,70,29.92,29.81,29.59,10,9,3,21,11,30,0.00,6,Snow,278
2014-1-21,24,11,-2,21,0,-8,93,66,45,30.22,30.14,29.90,10,8,1,21,11,30,0.00,3,Snow,360
2014-1-22,17,5,-7,12,0,-13,93,79,62,30.20,30.05,29.93,10,8,1,17,7,24,0.00,5,Snow,220
2014-1-23,6,1,-4,0,-8,-13,78,67,60,30.58,30.41,30.09,10,10,7,21,12,24,0.00,1,,275
2014-1-24,21,7,-7,18,-1,-13,93,71,58,30.58,30.19,29.67,10,7,1,29,15,37,0.00,2,Snow,217
2014-1-25,30,16,3,28,11,-6,93,70,45,29.89,29.63,29.44,10,6,1,28,20,34,0.00,5,Snow,269
2014-1-26,37,19,1,30,15,-8,93,79,58,29.88,29.60,29.44,10,8,0,25,12,37,0.01,6,Rain-Snow,216
2014-1-27,17,2,-14,7,-9,-22,79,67,49,30.44,30.19,29.72,10,9,0,26,18,36,0.00,4,Snow,280
2014-1-28,5,-6,-18,-6,-15,-24,85,69,55,30.46,30.39,30.28,10,10,10,13,7,,0.00,0,,246
2014-1-29,21,6,-9,7,-2,-15,85,65,46,30.28,30.23,30.15,10,10,10,16,10,,0.00,0,,218
2014-1-30,32,20,8,19,10,1,73,59,48,30.14,29.97,29.77,10,10,7,32,15,39,0.00,3,Snow,194
2014-1-31,30,26,23,27,21,18,100,83,60,30.14,30.07,29.91,10,6,1,14,8,17,0.00,7,Snow,258